Hamilton, OH

10:03 PM EDT on May 23, 2017 (GMT -0400)
Butler County Regional

Weather History for KHAO - November, 2012

Change the Weather History Date:

Saturday, November 24, 2012

  Actual Average (KLUK) Record (KLUK)
Temperature  
Mean Temperature 28 °F -  
Max Temperature 34 °F 49 °F 68 °F (2001)
Min Temperature 19 °F 32 °F 8 °F (1950)
Degree Days  
Heating Degree Days 38    
Moisture  
Dew Point 19 °F    
Average Humidity 64    
Maximum Humidity 85    
Minimum Humidity 56    
Precipitation  
Precipitation 0.00 in - - ()
Sea Level Pressure  
Sea Level Pressure 30.22 in    
Wind  
Wind Speed 6 mph (West)    
Max Wind Speed 10 mph    
Max Gust Speed -    
Visibility 10 miles    
Events      
Averages and records for this station are not official NWS values.
T = Trace of Precipitation, MM = Missing Value Source: NWS Daily Summary

Daily Weather History Graph

Daily Weather History Graph

Search for Another Location

Airport or City:

Trip Planner

Search our weather history database for the weather conditions in past years. The results will help you decide how hot, cold, wet, or windy it might be!

Date:

Astronomy

Nov. 24, 2012 Rise Set
Actual Time 7:32 AM EST 5:17 PM EST
Civil Twilight 7:02 AM EST 5:46 PM EST
Nautical Twilight 6:29 AM EST 6:19 PM EST
Astronomical Twilight 5:57 AM EST 6:51 PM EST
Moon 3:00 PM EST 3:49 AM EST
Length of Visible Light 10h 43m
Length of Day
9h 45m
Waxing Gibbous, 87% of the Moon is Illuminated
Nov 24
Waxing Gibbous
Nov 28
Full
Dec 6
Last Quarter
Dec 13
New
Dec 20
First Quarter

Hourly Weather History & Observations

Time (EST) Temp. Windchill Dew Point Humidity Pressure Visibility Wind Dir Wind Speed Gust Speed Precip Events Conditions
12:53 AM 30.9 °F 24.3 °F 19.0 °F 61% 30.21 in 10.0 mi WNW 6.9 mph - N/A   Overcast
1:53 AM 30.9 °F 25.2 °F 19.0 °F 61% 30.21 in 10.0 mi West 5.8 mph - N/A   Overcast
2:53 AM 30.0 °F 23.2 °F 19.0 °F 64% 30.21 in 10.0 mi West 6.9 mph - N/A   Overcast
3:53 AM 30.0 °F 24.1 °F 19.0 °F 64% 30.22 in 10.0 mi West 5.8 mph - N/A   Overcast
4:53 AM 30.0 °F 23.2 °F 19.0 °F 64% 30.21 in 10.0 mi West 6.9 mph - N/A   Overcast
5:53 AM 30.0 °F 25.2 °F 19.0 °F 64% 30.22 in 10.0 mi West 4.6 mph - N/A   Overcast
6:53 AM 30.0 °F 23.2 °F 19.9 °F 66% 30.23 in 10.0 mi WNW 6.9 mph - N/A   Overcast
7:53 AM 30.0 °F 21.7 °F 19.0 °F 64% 30.24 in 10.0 mi West 9.2 mph - N/A   Overcast
8:53 AM 30.0 °F 21.7 °F 19.9 °F 66% 30.25 in 10.0 mi West 9.2 mph - N/A   Overcast
9:53 AM 30.9 °F 24.3 °F 19.9 °F 64% 30.26 in 10.0 mi West 6.9 mph - N/A   Overcast
10:53 AM 32.0 °F 24.2 °F 19.9 °F 61% 30.27 in 10.0 mi West 9.2 mph - N/A   Overcast
11:53 AM 33.1 °F 25.5 °F 21.0 °F 61% 30.26 in 10.0 mi WNW 9.2 mph - N/A   Overcast
12:53 PM 33.1 °F 25.5 °F 21.0 °F 61% 30.24 in 10.0 mi WNW 9.2 mph - N/A   Overcast
1:53 PM 34.0 °F 26.6 °F 21.0 °F 59% 30.23 in 10.0 mi West 9.2 mph - N/A   Overcast
2:53 PM 34.0 °F 26.0 °F 19.9 °F 56% 30.22 in 10.0 mi WSW 10.4 mph - N/A   Overcast
3:53 PM 34.0 °F 28.8 °F 19.9 °F 56% 30.22 in 10.0 mi West 5.8 mph - N/A   Overcast
4:53 PM 33.1 °F 28.7 °F 19.9 °F 59% 30.22 in 10.0 mi WNW 4.6 mph - N/A   Overcast
5:53 PM 33.1 °F 28.7 °F 19.9 °F 59% 30.23 in 10.0 mi WSW 4.6 mph - N/A   Overcast
6:53 PM 32.0 °F 28.7 °F 19.0 °F 59% 30.22 in 10.0 mi West 3.5 mph - N/A   Overcast
7:53 PM 30.0 °F - 19.0 °F 64% 30.21 in 10.0 mi Calm Calm - N/A   Overcast
8:53 PM 28.9 °F - 19.0 °F 67% 30.20 in 10.0 mi Calm Calm - N/A   Mostly Cloudy
9:53 PM 23.0 °F - 17.1 °F 78% 30.18 in 10.0 mi Calm Calm - N/A   Clear
10:53 PM 21.0 °F - 16.0 °F 81% 30.18 in 10.0 mi Calm Calm - N/A   Clear
11:53 PM 19.9 °F - 16.0 °F 85% 30.16 in 10.0 mi Calm Calm - N/A   Clear